owner,sensor,date,latitude,longitude,vertical_datum,wind_speed,wind_to_direction,wind_speed_of_gust,qcFlag 
WAVCIS,ioos:station:WAVCIS:CSI09:1,2012-06-01T00:00:00Z,29.1015,-89.9782,0.0,5.919,147.0,,'11111222,11111222,99999999' 
WAVCIS,ioos:station:WAVCIS:CSI09:1,2012-06-01T01:00:00Z,29.1015,-89.9782,0.0,7.59,177.0,,'11111222,11111222,99999999' 
WAVCIS,ioos:station:WAVCIS:CSI09:1,2012-06-01T02:00:00Z,29.1015,-89.9782,0.0,4.775,188.0,,'11111222,11111222,99999999' 
WAVCIS,ioos:station:WAVCIS:CSI09:1,2012-06-01T03:00:00Z,29.1015,-89.9782,0.0,3.818,194.0,,'11111222,11111222,99999999' 
WAVCIS,ioos:station:WAVCIS:CSI09:1,2012-06-01T04:00:00Z,29.1015,-89.9782,0.0,4.762,175.0,,'11111222,11111222,99999999' 
WAVCIS,ioos:station:WAVCIS:CSI09:1,2012-06-01T05:00:00Z,29.1015,-89.9782,0.0,2.779,202.0,,'11111222,11111222,99999999' 
WAVCIS,ioos:station:WAVCIS:CSI09:1,2012-06-01T06:00:00Z,29.1015,-89.9782,0.0,5.032,211.0,,'11111222,11111222,99999999' 
WAVCIS,ioos:station:WAVCIS:CSI09:1,2012-06-01T07:00:00Z,29.1015,-89.9782,0.0,10.78,229.0,,'11111222,11111222,99999999' 
WAVCIS,ioos:station:WAVCIS:CSI09:1,2012-06-01T08:00:00Z,29.1015,-89.9782,0.0,11.63,256.0,,'11111222,11111222,99999999' 
WAVCIS,ioos:station:WAVCIS:CSI09:1,2012-06-01T09:00:00Z,29.1015,-89.9782,0.0,10.05,279.0,,'11111222,11111222,99999999' 
WAVCIS,ioos:station:WAVCIS:CSI09:1,2012-06-01T10:00:00Z,29.1015,-89.9782,0.0,9.46,266.0,,'11111222,11111222,99999999' 
WAVCIS,ioos:station:WAVCIS:CSI09:1,2012-06-01T11:00:00Z,29.1015,-89.9782,0.0,10.12,255.0,,'11111222,11111222,99999999' 
WAVCIS,ioos:station:WAVCIS:CSI09:1,2012-06-01T12:00:00Z,29.1015,-89.9782,0.0,9.28,252.0,,'11111222,11111222,99999999' 
WAVCIS,ioos:station:WAVCIS:CSI09:1,2012-06-01T13:00:00Z,29.1015,-89.9782,0.0,7.37,256.0,,'11111222,11111222,99999999' 
WAVCIS,ioos:station:WAVCIS:CSI09:1,2012-06-01T14:00:00Z,29.1015,-89.9782,0.0,7.0,269.0,,'11111222,11111222,99999999' 
WAVCIS,ioos:station:WAVCIS:CSI09:1,2012-06-01T15:00:00Z,29.1015,-89.9782,0.0,7.14,290.0,,'11111222,11111222,99999999' 
WAVCIS,ioos:station:WAVCIS:CSI09:1,2012-06-01T16:00:00Z,29.1015,-89.9782,0.0,5.179,310.0,,'11111222,11111222,99999999' 
WAVCIS,ioos:station:WAVCIS:CSI09:1,2012-06-01T17:00:00Z,29.1015,-89.9782,0.0,4.757,296.0,,'11111222,11111222,99999999' 
WAVCIS,ioos:station:WAVCIS:CSI09:1,2012-06-01T18:00:00Z,29.1015,-89.9782,0.0,5.441,283.0,,'11111222,11111222,99999999' 
WAVCIS,ioos:station:WAVCIS:CSI09:1,2012-06-01T19:00:00Z,29.1015,-89.9782,0.0,5.619,292.0,,'11111222,11111222,99999999' 
WAVCIS,ioos:station:WAVCIS:CSI09:1,2012-06-01T20:00:00Z,29.1015,-89.9782,0.0,4.559,294.0,,'11111222,11111222,99999999' 
WAVCIS,ioos:station:WAVCIS:CSI09:1,2012-06-01T21:00:00Z,29.1015,-89.9782,0.0,2.968,295.0,,'11111222,11111222,99999999' 
WAVCIS,ioos:station:WAVCIS:CSI09:1,2012-06-01T22:00:00Z,29.1015,-89.9782,0.0,5.546,4.0,,'11111222,11111222,99999999' 
WAVCIS,ioos:station:WAVCIS:CSI09:1,2012-06-01T23:00:00Z,29.1015,-89.9782,0.0,5.347,7.0,,'11111222,11111222,99999999' 
WAVCIS,ioos:station:WAVCIS:CSI09:1,2012-06-02T00:00:00Z,29.1015,-89.9782,0.0,7.41,358.0,,'11111222,11111222,99999999' 
WAVCIS,ioos:station:WAVCIS:CSI09:1,2012-06-02T01:00:00Z,29.1015,-89.9782,0.0,8.02,357.0,,'11111222,11111222,99999999' 
WAVCIS,ioos:station:WAVCIS:CSI09:1,2012-06-02T02:00:00Z,29.1015,-89.9782,0.0,8.44,356.0,,'11111222,11111222,99999999' 
WAVCIS,ioos:station:WAVCIS:CSI09:1,2012-06-02T03:00:00Z,29.1015,-89.9782,0.0,6.504,5.0,,'11111222,11111222,99999999' 
WAVCIS,ioos:station:WAVCIS:CSI09:1,2012-06-02T04:00:00Z,29.1015,-89.9782,0.0,6.564,20.0,,'11111222,11111222,99999999' 
WAVCIS,ioos:station:WAVCIS:CSI09:1,2012-06-02T05:00:00Z,29.1015,-89.9782,0.0,9.08,40.0,,'11111222,11111222,99999999' 
WAVCIS,ioos:station:WAVCIS:CSI09:1,2012-06-02T06:00:00Z,29.1015,-89.9782,0.0,8.0,37.0,,'11111222,11111222,99999999' 
WAVCIS,ioos:station:WAVCIS:CSI09:1,2012-06-02T07:00:00Z,29.1015,-89.9782,0.0,7.65,26.0,,'11111222,11111222,99999999' 
WAVCIS,ioos:station:WAVCIS:CSI09:1,2012-06-02T08:00:00Z,29.1015,-89.9782,0.0,7.08,31.0,,'11111222,11111222,99999999' 
WAVCIS,ioos:station:WAVCIS:CSI09:1,2012-06-02T09:00:00Z,29.1015,-89.9782,0.0,6.299,27.0,,'11111222,11111222,99999999' 
WAVCIS,ioos:station:WAVCIS:CSI09:1,2012-06-02T10:00:00Z,29.1015,-89.9782,0.0,6.316,29.0,,'11111222,11111222,99999999' 
WAVCIS,ioos:station:WAVCIS:CSI09:1,2012-06-02T11:00:00Z,29.1015,-89.9782,0.0,6.089,36.0,,'11111222,11111222,99999999' 
WAVCIS,ioos:station:WAVCIS:CSI09:1,2012-06-02T12:00:00Z,29.1015,-89.9782,0.0,4.905,46.0,,'11111222,11111222,99999999' 
WAVCIS,ioos:station:WAVCIS:CSI09:1,2012-06-02T13:00:00Z,29.1015,-89.9782,0.0,5.042,40.0,,'11111222,11111222,99999999' 
WAVCIS,ioos:station:WAVCIS:CSI09:1,2012-06-02T14:00:00Z,29.1015,-89.9782,0.0,4.435,44.0,,'11111222,11111222,99999999' 
WAVCIS,ioos:station:WAVCIS:CSI09:1,2012-06-02T15:00:00Z,29.1015,-89.9782,0.0,3.376,55.0,,'11111222,11111222,99999999' 
WAVCIS,ioos:station:WAVCIS:CSI09:1,2012-06-02T16:00:00Z,29.1015,-89.9782,0.0,3.264,45.0,,'11111222,11111222,99999999' 
WAVCIS,ioos:station:WAVCIS:CSI09:1,2012-06-02T17:00:00Z,29.1015,-89.9782,0.0,3.228,62.0,,'11111222,11111222,99999999' 
WAVCIS,ioos:station:WAVCIS:CSI09:1,2012-06-02T18:00:00Z,29.1015,-89.9782,0.0,3.485,63.0,,'11111222,11111222,99999999' 
WAVCIS,ioos:station:WAVCIS:CSI09:1,2012-06-02T19:00:00Z,29.1015,-89.9782,0.0,2.615,71.0,,'11111222,11111222,99999999' 
WAVCIS,ioos:station:WAVCIS:CSI09:1,2012-06-02T20:00:00Z,29.1015,-89.9782,0.0,2.03,99.0,,'11111222,11111222,99999999' 
WAVCIS,ioos:station:WAVCIS:CSI09:1,2012-06-02T21:00:00Z,29.1015,-89.9782,0.0,1.92,114.0,,'11111222,11111222,99999999' 
WAVCIS,ioos:station:WAVCIS:CSI09:1,2012-06-02T22:00:00Z,29.1015,-89.9782,0.0,2.831,144.0,,'11111222,11111222,99999999' 
WAVCIS,ioos:station:WAVCIS:CSI09:1,2012-06-02T23:00:00Z,29.1015,-89.9782,0.0,3.578,144.0,,'11111222,11111222,99999999' 
WAVCIS,ioos:station:WAVCIS:CSI09:1,2012-06-03T00:00:00Z,29.1015,-89.9782,0.0,3.086,148.0,,'11111222,11111222,99999999' 
WAVCIS,ioos:station:WAVCIS:CSI09:1,2012-06-03T01:00:00Z,29.1015,-89.9782,0.0,4.224,164.0,,'11111222,11111222,99999999' 
WAVCIS,ioos:station:WAVCIS:CSI09:1,2012-06-03T02:00:00Z,29.1015,-89.9782,0.0,4.004,167.0,,'11111222,11111222,99999999' 
WAVCIS,ioos:station:WAVCIS:CSI09:1,2012-06-03T03:00:00Z,29.1015,-89.9782,0.0,4.695,173.0,,'11111222,11111222,99999999' 
WAVCIS,ioos:station:WAVCIS:CSI09:1,2012-06-03T04:00:00Z,29.1015,-89.9782,0.0,5.334,171.0,,'11111222,11111222,99999999' 
WAVCIS,ioos:station:WAVCIS:CSI09:1,2012-06-03T05:00:00Z,29.1015,-89.9782,0.0,4.822,167.0,,'11111222,11111222,99999999' 
WAVCIS,ioos:station:WAVCIS:CSI09:1,2012-06-03T06:00:00Z,29.1015,-89.9782,0.0,5.057,175.0,,'11111222,11111222,99999999' 
WAVCIS,ioos:station:WAVCIS:CSI09:1,2012-06-03T07:00:00Z,29.1015,-89.9782,0.0,4.702,176.0,,'11111222,11111222,99999999' 
WAVCIS,ioos:station:WAVCIS:CSI09:1,2012-06-03T08:00:00Z,29.1015,-89.9782,0.0,4.882,172.0,,'11111222,11111222,99999999' 
WAVCIS,ioos:station:WAVCIS:CSI09:1,2012-06-03T09:00:00Z,29.1015,-89.9782,0.0,4.183,175.0,,'11111222,11111222,99999999' 
WAVCIS,ioos:station:WAVCIS:CSI09:1,2012-06-03T10:00:00Z,29.1015,-89.9782,0.0,3.16,192.0,,'11111222,11111222,99999999' 
WAVCIS,ioos:station:WAVCIS:CSI09:1,2012-06-03T11:00:00Z,29.1015,-89.9782,0.0,4.745,175.0,,'11111222,11111222,99999999' 
WAVCIS,ioos:station:WAVCIS:CSI09:1,2012-06-03T12:00:00Z,29.1015,-89.9782,0.0,3.994,173.0,,'11111222,11111222,99999999' 
WAVCIS,ioos:station:WAVCIS:CSI09:1,2012-06-03T13:00:00Z,29.1015,-89.9782,0.0,4.477,176.0,,'11111222,11111222,99999999' 
WAVCIS,ioos:station:WAVCIS:CSI09:1,2012-06-03T14:00:00Z,29.1015,-89.9782,0.0,3.069,192.0,,'11111222,11111222,99999999' 
WAVCIS,ioos:station:WAVCIS:CSI09:1,2012-06-03T15:00:00Z,29.1015,-89.9782,0.0,2.952,221.0,,'11111222,11111222,99999999' 
WAVCIS,ioos:station:WAVCIS:CSI09:1,2012-06-03T16:00:00Z,29.1015,-89.9782,0.0,2.535,213.0,,'11111222,11111222,99999999' 
WAVCIS,ioos:station:WAVCIS:CSI09:1,2012-06-03T17:00:00Z,29.1015,-89.9782,0.0,2.856,228.0,,'11111222,11111222,99999999' 
WAVCIS,ioos:station:WAVCIS:CSI09:1,2012-06-03T18:00:00Z,29.1015,-89.9782,0.0,3.565,229.0,,'11111222,11111222,99999999' 
WAVCIS,ioos:station:WAVCIS:CSI09:1,2012-06-03T19:00:00Z,29.1015,-89.9782,0.0,3.415,232.0,,'11111222,11111222,99999999' 
WAVCIS,ioos:station:WAVCIS:CSI09:1,2012-06-03T20:00:00Z,29.1015,-89.9782,0.0,2.264,212.0,,'11111222,11111222,99999999' 
WAVCIS,ioos:station:WAVCIS:CSI09:1,2012-06-03T21:00:00Z,29.1015,-89.9782,0.0,2.61,217.0,,'11111222,11111222,99999999' 
WAVCIS,ioos:station:WAVCIS:CSI09:1,2012-06-03T22:00:00Z,29.1015,-89.9782,0.0,2.404,201.0,,'11111222,11111222,99999999' 
WAVCIS,ioos:station:WAVCIS:CSI09:1,2012-06-03T23:00:00Z,29.1015,-89.9782,0.0,2.772,204.0,,'11111222,11111222,99999999' 
WAVCIS,ioos:station:WAVCIS:CSI09:1,2012-06-04T00:00:00Z,29.1015,-89.9782,0.0,3.188,177.0,,'11111222,11111222,99999999' 
WAVCIS,ioos:station:WAVCIS:CSI09:1,2012-06-04T01:00:00Z,29.1015,-89.9782,0.0,2.399,180.0,,'11111222,11111222,99999999' 
WAVCIS,ioos:station:WAVCIS:CSI09:1,2012-06-04T02:00:00Z,29.1015,-89.9782,0.0,2.799,180.0,,'11111222,11111222,99999999' 
WAVCIS,ioos:station:WAVCIS:CSI09:1,2012-06-04T03:00:00Z,29.1015,-89.9782,0.0,3.372,172.0,,'11111222,11111222,99999999' 
WAVCIS,ioos:station:WAVCIS:CSI09:1,2012-06-04T04:00:00Z,29.1015,-89.9782,0.0,3.873,179.0,,'11111222,11111222,99999999' 
WAVCIS,ioos:station:WAVCIS:CSI09:1,2012-06-04T05:00:00Z,29.1015,-89.9782,0.0,4.365,175.0,,'11111222,11111222,99999999' 
WAVCIS,ioos:station:WAVCIS:CSI09:1,2012-06-04T06:00:00Z,29.1015,-89.9782,0.0,5.107,185.0,,'11111222,11111222,99999999' 
WAVCIS,ioos:station:WAVCIS:CSI09:1,2012-06-04T07:00:00Z,29.1015,-89.9782,0.0,4.124,192.0,,'11111222,11111222,99999999' 
WAVCIS,ioos:station:WAVCIS:CSI09:1,2012-06-04T08:00:00Z,29.1015,-89.9782,0.0,3.552,205.0,,'11111222,11111222,99999999' 
WAVCIS,ioos:station:WAVCIS:CSI09:1,2012-06-04T09:00:00Z,29.1015,-89.9782,0.0,3.148,209.0,,'11111222,11111222,99999999' 
WAVCIS,ioos:station:WAVCIS:CSI09:1,2012-06-04T10:00:00Z,29.1015,-89.9782,0.0,5.713,225.0,,'11111222,11111222,99999999' 
WAVCIS,ioos:station:WAVCIS:CSI09:1,2012-06-04T11:00:00Z,29.1015,-89.9782,0.0,4.344,222.0,,'11111222,11111222,99999999' 
WAVCIS,ioos:station:WAVCIS:CSI09:1,2012-06-04T12:00:00Z,29.1015,-89.9782,0.0,6.246,229.0,,'11111222,11111222,99999999' 
WAVCIS,ioos:station:WAVCIS:CSI09:1,2012-06-04T13:00:00Z,29.1015,-89.9782,0.0,6.62,228.0,,'11111222,11111222,99999999' 
WAVCIS,ioos:station:WAVCIS:CSI09:1,2012-06-04T14:00:00Z,29.1015,-89.9782,0.0,6.589,237.0,,'11111222,11111222,99999999' 
WAVCIS,ioos:station:WAVCIS:CSI09:1,2012-06-04T15:00:00Z,29.1015,-89.9782,0.0,7.02,248.0,,'11111222,11111222,99999999' 
WAVCIS,ioos:station:WAVCIS:CSI09:1,2012-06-04T16:00:00Z,29.1015,-89.9782,0.0,5.791,246.0,,'11111222,11111222,99999999' 
WAVCIS,ioos:station:WAVCIS:CSI09:1,2012-06-04T17:00:00Z,29.1015,-89.9782,0.0,5.111,256.0,,'11111222,11111222,99999999' 
WAVCIS,ioos:station:WAVCIS:CSI09:1,2012-06-04T18:00:00Z,29.1015,-89.9782,0.0,4.316,250.0,,'11111222,11111222,99999999' 
WAVCIS,ioos:station:WAVCIS:CSI09:1,2012-06-04T19:00:00Z,29.1015,-89.9782,0.0,3.435,240.0,,'11111222,11111222,99999999' 
WAVCIS,ioos:station:WAVCIS:CSI09:1,2012-06-04T20:00:00Z,29.1015,-89.9782,0.0,2.789,215.0,,'11111222,11111222,99999999' 
WAVCIS,ioos:station:WAVCIS:CSI09:1,2012-06-04T21:00:00Z,29.1015,-89.9782,0.0,4.891,229.0,,'11111222,11111222,99999999' 
WAVCIS,ioos:station:WAVCIS:CSI09:1,2012-06-04T22:00:00Z,29.1015,-89.9782,0.0,4.222,229.0,,'11111222,11111222,99999999' 
WAVCIS,ioos:station:WAVCIS:CSI09:1,2012-06-04T23:00:00Z,29.1015,-89.9782,0.0,2.913,201.0,,'11111222,11111222,99999999' 
WAVCIS,ioos:station:WAVCIS:CSI09:1,2012-06-05T00:00:00Z,29.1015,-89.9782,0.0,3.382,202.0,,'11111222,11111222,99999999' 
WAVCIS,ioos:station:WAVCIS:CSI09:1,2012-06-05T01:00:00Z,29.1015,-89.9782,0.0,3.244,207.0,,'11111222,11111222,99999999' 
WAVCIS,ioos:station:WAVCIS:CSI09:1,2012-06-05T02:00:00Z,29.1015,-89.9782,0.0,2.63,217.0,,'11111222,11111222,99999999' 
WAVCIS,ioos:station:WAVCIS:CSI09:1,2012-06-05T03:00:00Z,29.1015,-89.9782,0.0,3.271,182.0,,'11111222,11111222,99999999' 
WAVCIS,ioos:station:WAVCIS:CSI09:1,2012-06-05T04:00:00Z,29.1015,-89.9782,0.0,3.251,207.0,,'11111222,11111222,99999999' 
WAVCIS,ioos:station:WAVCIS:CSI09:1,2012-06-05T05:00:00Z,29.1015,-89.9782,0.0,5.061,218.0,,'11111222,11111222,99999999' 
WAVCIS,ioos:station:WAVCIS:CSI09:1,2012-06-05T06:00:00Z,29.1015,-89.9782,0.0,6.54,226.0,,'11111222,11111222,99999999' 
WAVCIS,ioos:station:WAVCIS:CSI09:1,2012-06-05T07:00:00Z,29.1015,-89.9782,0.0,5.621,228.0,,'11111222,11111222,99999999' 
WAVCIS,ioos:station:WAVCIS:CSI09:1,2012-06-05T08:00:00Z,29.1015,-89.9782,0.0,5.765,240.0,,'11111222,11111222,99999999' 
WAVCIS,ioos:station:WAVCIS:CSI09:1,2012-06-05T09:00:00Z,29.1015,-89.9782,0.0,6.437,242.0,,'11111222,11111222,99999999' 
WAVCIS,ioos:station:WAVCIS:CSI09:1,2012-06-05T10:00:00Z,29.1015,-89.9782,0.0,6.055,247.0,,'11111222,11111222,99999999' 
WAVCIS,ioos:station:WAVCIS:CSI09:1,2012-06-05T11:00:00Z,29.1015,-89.9782,0.0,5.799,260.0,,'11111222,11111222,99999999' 
WAVCIS,ioos:station:WAVCIS:CSI09:1,2012-06-05T12:00:00Z,29.1015,-89.9782,0.0,5.442,251.0,,'11111222,11111222,99999999' 
WAVCIS,ioos:station:WAVCIS:CSI09:1,2012-06-05T13:00:00Z,29.1015,-89.9782,0.0,4.02,228.0,,'11111222,11111222,99999999' 
WAVCIS,ioos:station:WAVCIS:CSI09:1,2012-06-05T14:00:00Z,29.1015,-89.9782,0.0,6.259,269.0,,'11111222,11111222,99999999' 
WAVCIS,ioos:station:WAVCIS:CSI09:1,2012-06-05T15:00:00Z,29.1015,-89.9782,0.0,5.253,259.0,,'11111222,11111222,99999999' 
WAVCIS,ioos:station:WAVCIS:CSI09:1,2012-06-05T16:00:00Z,29.1015,-89.9782,0.0,5.91,250.0,,'11111222,11111222,99999999' 
WAVCIS,ioos:station:WAVCIS:CSI09:1,2012-06-05T17:00:00Z,29.1015,-89.9782,0.0,3.184,309.0,,'11111222,11111222,99999999' 
WAVCIS,ioos:station:WAVCIS:CSI09:1,2012-06-05T18:00:00Z,29.1015,-89.9782,0.0,3.45,232.0,,'11111222,11111222,99999999' 
WAVCIS,ioos:station:WAVCIS:CSI09:1,2012-06-05T19:00:00Z,29.1015,-89.9782,0.0,2.844,209.0,,'11111222,11111222,99999999' 
WAVCIS,ioos:station:WAVCIS:CSI09:1,2012-06-05T20:00:00Z,29.1015,-89.9782,0.0,3.79,202.0,,'11111222,11111222,99999999' 
WAVCIS,ioos:station:WAVCIS:CSI09:1,2012-06-05T21:00:00Z,29.1015,-89.9782,0.0,7.94,181.0,,'11111222,11111222,99999999' 
WAVCIS,ioos:station:WAVCIS:CSI09:1,2012-06-05T22:00:00Z,29.1015,-89.9782,0.0,5.826,191.0,,'11111222,11111222,99999999' 
WAVCIS,ioos:station:WAVCIS:CSI09:1,2012-06-05T23:00:00Z,29.1015,-89.9782,0.0,4.546,200.0,,'11111222,11111222,99999999' 
WAVCIS,ioos:station:WAVCIS:CSI09:1,2012-06-06T00:00:00Z,29.1015,-89.9782,0.0,4.51,206.0,,'11111222,11111222,99999999' 
WAVCIS,ioos:station:WAVCIS:CSI09:1,2012-06-06T01:00:00Z,29.1015,-89.9782,0.0,4.823,219.0,,'11111222,11111222,99999999' 
WAVCIS,ioos:station:WAVCIS:CSI09:1,2012-06-06T02:00:00Z,29.1015,-89.9782,0.0,5.595,233.0,,'11111222,11111222,99999999' 
WAVCIS,ioos:station:WAVCIS:CSI09:1,2012-06-06T03:00:00Z,29.1015,-89.9782,0.0,5.596,233.0,,'11111222,11111222,99999999' 
WAVCIS,ioos:station:WAVCIS:CSI09:1,2012-06-06T04:00:00Z,29.1015,-89.9782,0.0,6.519,237.0,,'11111222,11111222,99999999' 
WAVCIS,ioos:station:WAVCIS:CSI09:1,2012-06-06T05:00:00Z,29.1015,-89.9782,0.0,6.709,231.0,,'11111222,11111222,99999999' 
WAVCIS,ioos:station:WAVCIS:CSI09:1,2012-06-06T06:00:00Z,29.1015,-89.9782,0.0,4.487,237.0,,'11111222,11111222,99999999' 
WAVCIS,ioos:station:WAVCIS:CSI09:1,2012-06-06T07:00:00Z,29.1015,-89.9782,0.0,4.457,250.0,,'11111222,11111222,99999999' 
WAVCIS,ioos:station:WAVCIS:CSI09:1,2012-06-06T08:00:00Z,29.1015,-89.9782,0.0,4.374,241.0,,'11111222,11111222,99999999' 
WAVCIS,ioos:station:WAVCIS:CSI09:1,2012-06-06T09:00:00Z,29.1015,-89.9782,0.0,5.044,241.0,,'11111222,11111222,99999999' 
WAVCIS,ioos:station:WAVCIS:CSI09:1,2012-06-06T10:00:00Z,29.1015,-89.9782,0.0,4.66,230.0,,'11111222,11111222,99999999' 
WAVCIS,ioos:station:WAVCIS:CSI09:1,2012-06-06T11:00:00Z,29.1015,-89.9782,0.0,3.497,239.0,,'11111222,11111222,99999999' 
WAVCIS,ioos:station:WAVCIS:CSI09:1,2012-06-06T12:00:00Z,29.1015,-89.9782,0.0,3.424,265.0,,'11111222,11111222,99999999' 
WAVCIS,ioos:station:WAVCIS:CSI09:1,2012-06-06T13:00:00Z,29.1015,-89.9782,0.0,2.713,255.0,,'11111222,11111222,99999999' 
WAVCIS,ioos:station:WAVCIS:CSI09:1,2012-06-06T14:00:00Z,29.1015,-89.9782,0.0,2.256,242.0,,'11111222,11111222,99999999' 
WAVCIS,ioos:station:WAVCIS:CSI09:1,2012-06-06T15:00:00Z,29.1015,-89.9782,0.0,2.388,237.0,,'11111222,11111222,99999999' 
WAVCIS,ioos:station:WAVCIS:CSI09:1,2012-06-06T16:00:00Z,29.1015,-89.9782,0.0,2.314,229.0,,'11111222,11111222,99999999' 
WAVCIS,ioos:station:WAVCIS:CSI09:1,2012-06-06T17:00:00Z,29.1015,-89.9782,0.0,3.087,233.0,,'11111222,11111222,99999999' 
WAVCIS,ioos:station:WAVCIS:CSI09:1,2012-06-06T18:00:00Z,29.1015,-89.9782,0.0,3.549,237.0,,'11111222,11111222,99999999' 
WAVCIS,ioos:station:WAVCIS:CSI09:1,2012-06-06T19:00:00Z,29.1015,-89.9782,0.0,2.943,239.0,,'11111222,11111222,99999999' 
WAVCIS,ioos:station:WAVCIS:CSI09:1,2012-06-06T20:00:00Z,29.1015,-89.9782,0.0,1.994,208.0,,'11111222,11111222,99999999' 
WAVCIS,ioos:station:WAVCIS:CSI09:1,2012-06-06T21:00:00Z,29.1015,-89.9782,0.0,2.789,188.0,,'11111222,11111222,99999999' 
WAVCIS,ioos:station:WAVCIS:CSI09:1,2012-06-06T22:00:00Z,29.1015,-89.9782,0.0,4.238,163.0,,'11111222,11111222,99999999' 
WAVCIS,ioos:station:WAVCIS:CSI09:1,2012-06-06T23:00:00Z,29.1015,-89.9782,0.0,7.08,5.0,,'11111222,11111222,99999999' 
WAVCIS,ioos:station:WAVCIS:CSI09:1,2012-06-07T00:00:00Z,29.1015,-89.9782,0.0,1.23,303.0,,'11111222,11111222,99999999' 
WAVCIS,ioos:station:WAVCIS:CSI09:1,2012-06-07T01:00:00Z,29.1015,-89.9782,0.0,0.594,179.0,,'11111222,11111222,99999999' 
WAVCIS,ioos:station:WAVCIS:CSI09:1,2012-06-07T02:00:00Z,29.1015,-89.9782,0.0,2.227,224.0,,'11111222,11111222,99999999' 
WAVCIS,ioos:station:WAVCIS:CSI09:1,2012-06-07T03:00:00Z,29.1015,-89.9782,0.0,2.682,168.0,,'11111222,11111222,99999999' 
WAVCIS,ioos:station:WAVCIS:CSI09:1,2012-06-07T04:00:00Z,29.1015,-89.9782,0.0,0.935,228.0,,'11111222,11111222,99999999' 
WAVCIS,ioos:station:WAVCIS:CSI09:1,2012-06-07T05:00:00Z,29.1015,-89.9782,0.0,4.257,3.0,,'11111222,11111222,99999999' 
WAVCIS,ioos:station:WAVCIS:CSI09:1,2012-06-07T06:00:00Z,29.1015,-89.9782,0.0,3.198,6.0,,'11111222,11111222,99999999' 
WAVCIS,ioos:station:WAVCIS:CSI09:1,2012-06-07T07:00:00Z,29.1015,-89.9782,0.0,2.683,38.0,,'11111222,11111222,99999999' 
WAVCIS,ioos:station:WAVCIS:CSI09:1,2012-06-07T08:00:00Z,29.1015,-89.9782,0.0,4.301,50.0,,'11111222,11111222,99999999' 
WAVCIS,ioos:station:WAVCIS:CSI09:1,2012-06-07T09:00:00Z,29.1015,-89.9782,0.0,4.968,54.0,,'11111222,11111222,99999999' 
WAVCIS,ioos:station:WAVCIS:CSI09:1,2012-06-07T10:00:00Z,29.1015,-89.9782,0.0,4.149,57.0,,'11111222,11111222,99999999' 
WAVCIS,ioos:station:WAVCIS:CSI09:1,2012-06-07T11:00:00Z,29.1015,-89.9782,0.0,3.167,65.0,,'11111222,11111222,99999999' 
WAVCIS,ioos:station:WAVCIS:CSI09:1,2012-06-07T12:00:00Z,29.1015,-89.9782,0.0,3.144,69.0,,'11111222,11111222,99999999' 
WAVCIS,ioos:station:WAVCIS:CSI09:1,2012-06-07T13:00:00Z,29.1015,-89.9782,0.0,2.751,112.0,,'11111222,11111222,99999999' 
WAVCIS,ioos:station:WAVCIS:CSI09:1,2012-06-07T14:00:00Z,29.1015,-89.9782,0.0,2.303,101.0,,'11111222,11111222,99999999' 
WAVCIS,ioos:station:WAVCIS:CSI09:1,2012-06-07T15:00:00Z,29.1015,-89.9782,0.0,2.149,81.0,,'11111222,11111222,99999999' 
WAVCIS,ioos:station:WAVCIS:CSI09:1,2012-06-07T16:00:00Z,29.1015,-89.9782,0.0,1.429,97.0,,'11111222,11111222,99999999' 
WAVCIS,ioos:station:WAVCIS:CSI09:1,2012-06-07T17:00:00Z,29.1015,-89.9782,0.0,2.155,42.0,,'11111222,11111222,99999999' 
WAVCIS,ioos:station:WAVCIS:CSI09:1,2012-06-07T18:00:00Z,29.1015,-89.9782,0.0,1.782,87.0,,'11111222,11111222,99999999' 
WAVCIS,ioos:station:WAVCIS:CSI09:1,2012-06-07T19:00:00Z,29.1015,-89.9782,0.0,1.775,119.0,,'11111222,11111222,99999999' 
WAVCIS,ioos:station:WAVCIS:CSI09:1,2012-06-07T20:00:00Z,29.1015,-89.9782,0.0,3.233,160.0,,'11111222,11111222,99999999' 
WAVCIS,ioos:station:WAVCIS:CSI09:1,2012-06-07T21:00:00Z,29.1015,-89.9782,0.0,3.351,166.0,,'11111222,11111222,99999999' 
WAVCIS,ioos:station:WAVCIS:CSI09:1,2012-06-07T22:00:00Z,29.1015,-89.9782,0.0,3.136,176.0,,'11111222,11111222,99999999' 
WAVCIS,ioos:station:WAVCIS:CSI09:1,2012-06-07T23:00:00Z,29.1015,-89.9782,0.0,2.024,173.0,,'11111222,11111222,99999999' 
WAVCIS,ioos:station:WAVCIS:CSI09:1,2012-06-08T00:00:00Z,29.1015,-89.9782,0.0,2.377,313.0,,'11111222,11111222,99999999' 
WAVCIS,ioos:station:WAVCIS:CSI09:1,2012-06-08T01:00:00Z,29.1015,-89.9782,0.0,7.85,8.0,,'11111222,11111222,99999999' 
WAVCIS,ioos:station:WAVCIS:CSI09:1,2012-06-08T02:00:00Z,29.1015,-89.9782,0.0,2.996,55.0,,'11111222,11111222,99999999' 
WAVCIS,ioos:station:WAVCIS:CSI09:1,2012-06-08T03:00:00Z,29.1015,-89.9782,0.0,4.094,114.0,,'11111222,11111222,99999999' 
WAVCIS,ioos:station:WAVCIS:CSI09:1,2012-06-08T04:00:00Z,29.1015,-89.9782,0.0,4.7,90.0,,'11111222,11111222,99999999' 
WAVCIS,ioos:station:WAVCIS:CSI09:1,2012-06-08T05:00:00Z,29.1015,-89.9782,0.0,2.32,99.0,,'11111222,11111222,99999999' 
WAVCIS,ioos:station:WAVCIS:CSI09:1,2012-06-08T06:00:00Z,29.1015,-89.9782,0.0,1.201,89.0,,'11111222,11111222,99999999' 
WAVCIS,ioos:station:WAVCIS:CSI09:1,2012-06-08T07:00:00Z,29.1015,-89.9782,0.0,1.872,112.0,,'11111222,11111222,99999999' 
WAVCIS,ioos:station:WAVCIS:CSI09:1,2012-06-08T08:00:00Z,29.1015,-89.9782,0.0,1.494,115.0,,'11111222,11111222,99999999' 
WAVCIS,ioos:station:WAVCIS:CSI09:1,2012-06-08T09:00:00Z,29.1015,-89.9782,0.0,3.794,141.0,,'11111222,11111222,99999999' 
WAVCIS,ioos:station:WAVCIS:CSI09:1,2012-06-08T10:00:00Z,29.1015,-89.9782,0.0,5.983,166.0,,'11111222,11111222,99999999' 
WAVCIS,ioos:station:WAVCIS:CSI09:1,2012-06-08T11:00:00Z,29.1015,-89.9782,0.0,4.493,138.0,,'11111222,11111222,99999999' 
WAVCIS,ioos:station:WAVCIS:CSI09:1,2012-06-08T12:00:00Z,29.1015,-89.9782,0.0,12.8,12.0,,'11111222,11111222,99999999' 
WAVCIS,ioos:station:WAVCIS:CSI09:1,2012-06-08T13:00:00Z,29.1015,-89.9782,0.0,4.736,42.0,,'11111222,11111222,99999999' 
WAVCIS,ioos:station:WAVCIS:CSI09:1,2012-06-08T14:00:00Z,29.1015,-89.9782,0.0,3.984,90.0,,'11111222,11111222,99999999' 
WAVCIS,ioos:station:WAVCIS:CSI09:1,2012-06-08T15:00:00Z,29.1015,-89.9782,0.0,4.96,64.0,,'11111222,11111222,99999999' 
WAVCIS,ioos:station:WAVCIS:CSI09:1,2012-06-08T16:00:00Z,29.1015,-89.9782,0.0,6.777,66.0,,'11111222,11111222,99999999' 
WAVCIS,ioos:station:WAVCIS:CSI09:1,2012-06-08T17:00:00Z,29.1015,-89.9782,0.0,5.274,81.0,,'11111222,11111222,99999999' 
WAVCIS,ioos:station:WAVCIS:CSI09:1,2012-06-08T18:00:00Z,29.1015,-89.9782,0.0,5.155,87.0,,'11111222,11111222,99999999' 
WAVCIS,ioos:station:WAVCIS:CSI09:1,2012-06-08T19:00:00Z,29.1015,-89.9782,0.0,5.234,107.0,,'11111222,11111222,99999999' 
WAVCIS,ioos:station:WAVCIS:CSI09:1,2012-06-08T20:00:00Z,29.1015,-89.9782,0.0,4.803,112.0,,'11111222,11111222,99999999' 
WAVCIS,ioos:station:WAVCIS:CSI09:1,2012-06-08T21:00:00Z,29.1015,-89.9782,0.0,6.049,91.0,,'11111222,11111222,99999999' 
WAVCIS,ioos:station:WAVCIS:CSI09:1,2012-06-08T22:00:00Z,29.1015,-89.9782,0.0,5.358,98.0,,'11111222,11111222,99999999' 
WAVCIS,ioos:station:WAVCIS:CSI09:1,2012-06-08T23:00:00Z,29.1015,-89.9782,0.0,4.388,116.0,,'11111222,11111222,99999999' 
WAVCIS,ioos:station:WAVCIS:CSI09:1,2012-06-09T00:00:00Z,29.1015,-89.9782,0.0,3.772,129.0,,'11111222,11111222,99999999' 
WAVCIS,ioos:station:WAVCIS:CSI09:1,2012-06-09T01:00:00Z,29.1015,-89.9782,0.0,3.418,108.0,,'11111222,11111222,99999999' 
WAVCIS,ioos:station:WAVCIS:CSI09:1,2012-06-09T02:00:00Z,29.1015,-89.9782,0.0,5.289,135.0,,'11111222,11111222,99999999' 
WAVCIS,ioos:station:WAVCIS:CSI09:1,2012-06-09T03:00:00Z,29.1015,-89.9782,0.0,3.108,149.0,,'11111222,11111222,99999999' 
WAVCIS,ioos:station:WAVCIS:CSI09:1,2012-06-09T04:00:00Z,29.1015,-89.9782,0.0,3.576,125.0,,'11111222,11111222,99999999' 
WAVCIS,ioos:station:WAVCIS:CSI09:1,2012-06-09T05:00:00Z,29.1015,-89.9782,0.0,3.285,122.0,,'11111222,11111222,99999999' 
WAVCIS,ioos:station:WAVCIS:CSI09:1,2012-06-09T06:00:00Z,29.1015,-89.9782,0.0,4.432,153.0,,'11111222,11111222,99999999' 